FW4751 Weather Reports


Display with metric or nautical units.
time (UTC)temp
F
wind
direction
speed
MPH
gust
MPH
rain 1hr
in
rain 24hr
in
rain mn
in
humidity
%
barometer
mb
20210618151503 69 270 2.0 4.0 0.00 0.00 0.00 65 1007.5
20210618151005 68 45 2.0 4.0 0.00 0.00 0.00 66 1007.6
20210618150505 68 23 1.0 3.0 0.00 0.00 0.00 67 1007.5
20210618150005 68 45 1.0 3.0 0.00 0.00 0.00 67 1007.5
20210618145504 68 338 1.0 3.0 0.00 0.00 0.00 69 1007.5
20210618145004 67 293 1.0 2.0 0.00 0.00 0.00 70 1007.6
20210618144504 66 270 1.0 2.0 0.00 0.00 0.00 71 1007.6
20210618144004 66 248 1.0 2.0 0.00 0.00 0.00 71 1007.6
20210618143505 66 23 1.0 2.0 0.00 0.00 0.00 72 1007.6
20210618143004 66 0 1.0 2.0 0.00 0.00 0.00 73 1007.5
20210618142504 65 45 1.0 2.0 0.00 0.00 0.00 74 1007.6
20210618142004 65 0 1.0 3.0 0.00 0.00 0.00 74 1007.5
20210618141504 64 293 1.0 3.0 0.00 0.00 0.00 75 1007.3
20210618141004 63 293 1.0 3.0 0.00 0.00 0.00 76 1007.2
20210618140504 63 270 1.0 3.0 0.00 0.00 0.00 77 1007.2
20210618140004 63 248 1.0 2.0 0.00 0.00 0.00 78 1007.3
20210618135505 62 225 1.0 2.0 0.00 0.00 0.00 78 1007.3
20210618135004 62 248 1.0 3.0 0.00 0.00 0.00 79 1007.3
20210618134504 61 248 1.0 3.0 0.00 0.00 0.00 80 1007.2
20210618134004 61 0.0 1.0 0.00 0.00 0.00 81 1007.3
20210618133504 60 225 1.0 2.0 0.00 0.00 0.00 82 1007.3
20210618133004 60 0.0 1.0 0.00 0.00 0.00 84 1007.2
20210618132504 60 270 1.0 2.0 0.00 0.00 0.00 84 1007.0
20210618132005 59 225 1.0 2.0 0.00 0.00 0.00 85 1007.0
20210618131504 59 225 1.0 2.0 0.00 0.00 0.00 86 1007.0
20210618131005 59 225 1.0 2.0 0.00 0.00 0.00 86 1006.9
20210618130504 59 0.0 1.0 0.00 0.00 0.00 86 1007.0
20210618130005 59 0.0 1.0 0.00 0.00 0.00 86 1007.0
20210618125504 59 0.0 2.0 0.00 0.00 0.00 85 1007.0
20210618125004 59 0.0 2.0 0.00 0.00 0.00 85 1006.9
20210618124504 59 225 1.0 2.0 0.00 0.00 0.00 86 1006.9
20210618124004 59 0.0 1.0 0.00 0.00 0.00 86 1006.9
20210618123504 59 0.0 2.0 0.00 0.00 0.00 86 1006.9
20210618123004 59 225 1.0 2.0 0.00 0.00 0.00 86 1006.9
20210618122504 59 270 1.0 2.0 0.00 0.00 0.00 86 1006.8
20210618122009 59 338 1.0 2.0 0.00 0.00 0.00 85 1006.8
20210618121504 59 0.0 1.0 0.00 0.00 0.00 85 1006.7
20210618121004 59 0.0 1.0 0.00 0.00 0.00 85 1006.8
20210618120504 59 0.0 1.0 0.00 0.00 0.00 85 1006.7
20210618120004 59 0.0 1.0 0.00 0.00 0.00 85 1006.6
20210618115504 59 0.0 2.0 0.00 0.00 0.00 85 1006.6
20210618115004 60 0.0 1.0 0.00 0.00 0.00 84 1006.7
20210618114504 60 0.0 1.0 0.00 0.00 0.00 85 1006.7
20210618114004 60 0.0 1.0 0.00 0.00 0.00 85 1006.6
20210618113504 60 0.0 1.0 0.00 0.00 0.00 84 1006.7
20210618113004 60 0.0 1.0 0.00 0.00 0.00 83 1006.7
20210618112504 60 0.0 1.0 0.00 0.00 0.00 83 1006.7
20210618112004 60 0.0 1.0 0.00 0.00 0.00 83 1006.8
20210618111504 60 0.0 1.0 0.00 0.00 0.00 83 1006.6
20210618111004 61 0.0 1.0 0.00 0.00 0.00 82 1006.6
20210618110504 61 0.0 1.0 0.00 0.00 0.00 82 1006.5
20210618110004 61 0.0 1.0 0.00 0.00 0.00 82 1006.5
20210618105504 61 0.0 1.0 0.00 0.00 0.00 82 1006.5
20210618105004 61 0.0 1.0 0.00 0.00 0.00 82 1006.5
20210618104504 61 0.0 1.0 0.00 0.00 0.00 82 1006.5
20210618104004 61 0.0 1.0 0.00 0.00 0.00 82 1006.4
20210618103504 61 0.0 1.0 0.00 0.00 0.00 82 1006.3
20210618103004 61 0.0 1.0 0.00 0.00 0.00 81 1006.4
20210618102504 61 0.0 1.0 0.00 0.00 0.00 81 1006.3
20210618102004 61 0.0 1.0 0.00 0.00 0.00 81 1006.3
20210618101504 61 0.0 0.0 0.00 0.00 0.00 81 1006.3
20210618101004 62 0.0 1.0 0.00 0.00 0.00 81 1006.3
20210618100504 62 0.0 1.0 0.00 0.00 0.00 81 1006.3
20210618100004 62 0.0 1.0 0.00 0.00 0.00 81 1006.3
20210618095504 62 0.0 1.0 0.00 0.00 0.00 80 1006.4
20210618095004 62 0.0 1.0 0.00 0.00 0.00 79 1006.3
20210618094504 62 0.0 1.0 0.00 0.00 0.00 79 1006.3
20210618094004 62 225 1.0 1.0 0.00 0.00 0.00 79 1006.4
20210618093504 62 0.0 1.0 0.00 0.00 0.00 79 1006.4
20210618093004 62 0.0 1.0 0.00 0.00 0.00 79 1006.4
20210618092504 63 0.0 1.0 0.00 0.00 0.00 78 1006.4
20210618092004 63 0.0 1.0 0.00 0.00 0.00 79 1006.5
20210618091504 63 0.0 1.0 0.00 0.00 0.00 79 1006.4
20210618091004 63 0.0 1.0 0.00 0.00 0.00 79 1006.5
20210618090504 63 0.0 1.0 0.00 0.00 0.00 79 1006.5
20210618090004 63 0.0 1.0 0.00 0.00 0.00 79 1006.6
20210618085503 63 0 1.0 1.0 0.00 0.00 0.00 79 1006.6
20210618085005 63 0.0 1.0 0.00 0.00 0.00 79 1006.6
20210618084504 63 23 1.0 1.0 0.00 0.00 0.00 78 1006.7
20210618084004 64 0.0 1.0 0.00 0.00 0.00 77 1006.8
20210618083504 64 0.0 1.0 0.00 0.00 0.00 77 1006.9
20210618083004 64 203 1.0 2.0 0.00 0.00 0.00 77 1006.9
20210618082503 64 225 1.0 2.0 0.00 0.00 0.00 78 1006.9
20210618082004 64 248 1.0 2.0 0.00 0.00 0.00 78 1006.9
20210618081504 64 0.0 2.0 0.00 0.00 0.00 77 1006.9
20210618081003 64 0.0 1.0 0.00 0.00 0.00 79 1006.9
20210618080503 64 248 1.0 2.0 0.00 0.00 0.00 78 1007.0
20210618080003 64 225 1.0 2.0 0.00 0.00 0.00 79 1007.1
20210618075503 64 0.0 0.0 0.00 0.00 0.00 79 1007.1
20210618075003 64 0.0 1.0 0.00 0.00 0.00 79 1007.2
20210618074503 65 0.0 2.0 0.00 0.00 0.00 79 1007.0
20210618074003 65 203 1.0 2.0 0.00 0.00 0.00 79 1007.1
20210618073504 65 0 1.0 2.0 0.00 0.00 0.00 78 1007.1
20210618073004 65 45 1.0 2.0 0.00 0.00 0.00 78 1007.3
20210618072503 65 225 1.0 2.0 0.00 0.00 0.00 78 1007.2
20210618072003 65 293 1.0 2.0 0.00 0.00 0.00 78 1007.2
20210618071504 65 225 1.0 2.0 0.00 0.00 0.00 78 1007.2
20210618071004 65 270 1.0 2.0 0.00 0.00 0.00 77 1007.2
20210618070504 65 203 1.0 2.0 0.00 0.00 0.00 77 1007.3
20210618070004 65 315 1.0 2.0 0.00 0.00 0.00 77 1007.1
20210618065504 66 0.0 1.0 0.00 0.00 0.00 76 1007.2
20210618065004 66 0.0 1.0 0.00 0.00 0.00 76 1007.2
20210618064504 66 0.0 2.0 0.00 0.00 0.00 76 1007.2
20210618064005 66 0 1.0 2.0 0.00 0.00 0.00 76 1007.2
20210618063504 66 0.0 1.0 0.00 0.00 0.00 76 1007.2
20210618063004 66 0.0 2.0 0.00 0.00 0.00 76 1007.3
20210618062504 66 0.0 2.0 0.00 0.00 0.00 76 1007.1
20210618062004 66 0.0 1.0 0.00 0.00 0.00 76 1007.2
20210618061504 66 0.0 2.0 0.00 0.00 0.00 75 1007.1
20210618061004 67 0 1.0 3.0 0.00 0.00 0.00 76 1007.2
20210618060504 67 338 1.0 4.0 0.00 0.00 0.00 75 1007.2
20210618060004 67 23 2.0 5.0 0.00 0.00 0.00 75 1007.1
20210618055505 67 23 2.0 3.0 0.00 0.00 0.00 75 1007.2
20210618055004 67 23 2.0 3.0 0.00 0.00 0.00 75 1007.2
20210618054504 67 23 1.0 3.0 0.00 0.00 0.00 75 1007.2
20210618054004 68 23 2.0 4.0 0.00 0.00 0.00 74 1007.1
20210618053504 68 45 2.0 3.0 0.00 0.00 0.00 73 1007.0
20210618053004 68 23 1.0 3.0 0.00 0.00 0.00 72 1007.1
20210618052504 68 23 2.0 4.0 0.00 0.00 0.00 71 1007.0
20210618052004 68 45 1.0 2.0 0.00 0.00 0.00 68 1006.9
20210618051504 69 45 1.0 3.0 0.00 0.00 0.00 67 1006.9
20210618051004 69 23 1.0 3.0 0.00 0.00 0.00 67 1006.9
20210618050504 69 23 1.0 3.0 0.00 0.00 0.00 67 1006.8
20210618050004 69 23 1.0 2.0 0.00 0.00 0.00 67 1006.8
20210618045504 69 0 1.0 3.0 0.00 0.00 0.00 67 1006.7
20210618045004 69 0 1.0 2.0 0.00 0.00 0.00 66 1006.7
20210618044504 70 0 1.0 3.0 0.00 0.00 0.00 64 1006.6
20210618044004 70 0 1.0 3.0 0.00 0.00 0.00 63 1006.7
20210618043504 70 45 1.0 2.0 0.00 0.00 0.00 62 1006.6
20210618043004 70 45 1.0 2.0 0.00 0.00 0.00 61 1006.5
20210618042504 71 0 1.0 3.0 0.00 0.00 0.00 61 1006.3
20210618042004 71 0 1.0 2.0 0.00 0.00 0.00 63 1006.3
20210618041504 71 315 1.0 2.0 0.00 0.00 0.00 63 1006.2
20210618041004 71 338 1.0 3.0 0.00 0.00 0.00 64 1006.1
20210618040504 71 0 1.0 3.0 0.00 0.00 0.00 65 1006.2
20210618040004 71 0 1.0 3.0 0.00 0.00 0.00 66 1006.2
20210618035504 71 0 1.0 3.0 0.00 0.00 0.00 66 1006.2
20210618035004 71 0 1.0 2.0 0.00 0.00 0.00 66 1006.2
20210618034504 71 338 2.0 3.0 0.00 0.00 0.00 66 1006.3
20210618034004 71 23 1.0 3.0 0.00 0.00 0.00 65 1006.3
20210618033504 71 23 1.0 3.0 0.00 0.00 0.00 65 1006.3
20210618033004 72 23 1.0 3.0 0.00 0.00 0.00 64 1006.3
20210618032504 72 23 2.0 4.0 0.00 0.00 0.00 63 1006.4
20210618032004 72 23 1.0 4.0 0.00 0.00 0.00 61 1006.3
20210618031504 73 0 2.0 6.0 0.00 0.00 0.00 60 1006.4
20210618031004 73 0 2.0 5.0 0.00 0.00 0.00 59 1006.5
20210618030504 73 0 2.0 6.0 0.00 0.00 0.00 61 1006.5
20210618030004 73 0 4.0 8.0 0.00 0.00 0.00 61 1006.5
20210618025504 74 23 3.0 7.0 0.00 0.00 0.00 60 1006.4
20210618025004 74 23 3.0 6.0 0.00 0.00 0.00 59 1006.4
20210618024504 75 45 4.0 7.0 0.00 0.00 0.00 57 1006.4
20210618024004 75 23 4.0 7.0 0.00 0.00 0.00 56 1006.4
20210618023504 76 23 4.0 7.0 0.00 0.00 0.00 56 1006.4
20210618023004 77 23 3.0 6.0 0.00 0.00 0.00 55 1006.4
20210618022504 77 23 3.0 7.0 0.00 0.00 0.00 54 1006.4
20210618022004 77 23 4.0 6.0 0.00 0.00 0.00 54 1006.3
20210618021504 78 45 4.0 7.0 0.00 0.00 0.00 54 1006.3
20210618021004 78 23 3.0 6.0 0.00 0.00 0.00 53 1006.3
20210618020504 79 23 3.0 7.0 0.00 0.00 0.00 51 1006.3
20210618020004 79 45 4.0 8.0 0.00 0.00 0.00 50 1006.2
20210618015503 80 23 3.0 8.0 0.00 0.00 0.00 50 1006.2
20210618015004 80 23 4.0 8.0 0.00 0.00 0.00 51 1006.2
20210618014504 80 23 3.0 8.0 0.00 0.00 0.00 51 1006.2
20210618014004 80 23 4.0 9.0 0.00 0.00 0.00 50 1006.1
20210618013503 80 23 5.0 11.0 0.00 0.00 0.00 50 1006.0
20210618013004 81 23 5.0 9.0 0.00 0.00 0.00 50 1006.1
20210618012504 81 23 5.0 9.0 0.00 0.00 0.00 49 1006.0
20210618012003 82 23 4.0 8.0 0.00 0.00 0.00 48 1006.0
20210618011504 82 23 5.0 9.0 0.00 0.00 0.00 49 1006.1
20210618011004 82 23 4.0 8.0 0.00 0.00 0.00 49 1006.1
20210618010504 82 23 5.0 9.0 0.00 0.00 0.00 49 1006.1
20210618010004 82 23 4.0 9.0 0.00 0.00 0.00 50 1006.1
20210618005504 82 23 4.0 11.0 0.00 0.00 0.00 49 1006.2
20210618005003 82 23 6.0 11.0 0.00 0.00 0.00 49 1006.1
20210618004504 82 23 5.0 11.0 0.00 0.00 0.00 49 1006.2
20210618004003 83 23 5.0 10.0 0.00 0.00 0.00 48 1006.2
20210618003504 83 23 6.0 12.0 0.00 0.00 0.00 47 1006.3
20210618003003 83 23 5.0 12.0 0.00 0.00 0.00 47 1006.3
20210618002503 84 23 6.0 10.0 0.00 0.00 0.00 47 1006.4
20210618002003 84 23 5.0 10.0 0.00 0.00 0.00 47 1006.4
20210618001503 84 23 6.0 13.0 0.00 0.00 0.00 46 1006.6
20210618001003 85 0 5.0 11.0 0.00 0.00 0.00 46 1006.5
20210618000503 85 23 6.0 13.0 0.00 0.00 0.00 45 1006.6
20210618000004 85 0 6.0 12.0 0.00 0.00 0.00 46 1006.6
20210617235503 85 23 4.0 9.0 0.00 0.00 0.00 44 1006.6
20210617235003 85 23 6.0 13.0 0.00 0.00 0.00 44 1006.7
20210617234503 86 23 6.0 11.0 0.00 0.00 0.00 43 1006.7
20210617234003 87 23 5.0 11.0 0.00 0.00 0.00 42 1006.7
20210617233503 87 23 7.0 15.0 0.00 0.00 0.00 42 1006.7
20210617233004 87 23 6.0 11.0 0.00 0.00 0.00 42 1006.6
20210617232503 88 23 7.0 13.0 0.00 0.00 0.00 40 1006.7
20210617232003 88 23 6.0 12.0 0.00 0.00 0.00 38 1006.7
20210617231503 89 23 5.0 12.0 0.00 0.00 0.00 38 1006.8
20210617231003 89 23 6.0 11.0 0.00 0.00 0.00 37 1006.9
20210617230504 90 0 6.0 11.0 0.00 0.00 0.00 36 1006.7
20210617230003 91 23 6.0 11.0 0.00 0.00 0.00 36 1006.7
20210617225503 92 23 6.0 10.0 0.00 0.00 0.00 33 1006.7
20210617225003 92 23 5.0 11.0 0.00 0.00 0.00 32 1006.7
20210617224503 92 0 6.0 15.0 0.00 0.00 0.00 31 1006.7
20210617224003 92 23 7.0 14.0 0.00 0.00 0.00 30 1006.8
20210617223503 93 23 7.0 14.0 0.00 0.00 0.00 29 1006.8
20210617223003 94 23 6.0 13.0 0.00 0.00 0.00 27 1007.0
20210617222503 95 0 6.0 14.0 0.00 0.00 0.00 26 1007.0
20210617222003 96 0 4.0 11.0 0.00 0.00 0.00 26 1007.1
20210617221503 96 338 4.0 12.0 0.00 0.00 0.00 27 1007.2
20210617221003 95 338 5.0 12.0 0.00 0.00 0.00 26 1007.2
20210617220503 96 0 5.0 13.0 0.00 0.00 0.00 28 1007.2
20210617220003 97 0 3.0 7.0 0.00 0.00 0.00 29 1007.2
20210617215503 96 338 5.0 12.0 0.00 0.00 0.00 30 1007.2
20210617215003 96 0 5.0 10.0 0.00 0.00 0.00 31 1007.1
20210617214503 96 23 5.0 10.0 0.00 0.00 0.00 32 1007.1
20210617214003 96 23 4.0 10.0 0.00 0.00 0.00 32 1007.2
20210617213503 96 338 4.0 9.0 0.00 0.00 0.00 33 1007.2
20210617213003 96 338 4.0 11.0 0.00 0.00 0.00 33 1007.3
20210617212503 95 23 5.0 9.0 0.00 0.00 0.00 33 1007.3
20210617212003 95 338 4.0 11.0 0.00 0.00 0.00 33 1007.4
20210617211503 95 0 4.0 8.0 0.00 0.00 0.00 32 1007.5
20210617211003 95 23 5.0 9.0 0.00 0.00 0.00 31 1007.5
20210617210503 95 23 5.0 10.0 0.00 0.00 0.00 31 1007.7
20210617210003 95 23 4.0 8.0 0.00 0.00 0.00 31 1007.7
20210617205503 95 338 4.0 9.0 0.00 0.00 0.00 30 1007.8
20210617205003 96 338 3.0 8.0 0.00 0.00 0.00 30 1007.9
20210617204503 95 338 3.0 9.0 0.00 0.00 0.00 31 1007.8
20210617204003 94 0 4.0 9.0 0.00 0.00 0.00 31 1007.8
20210617203503 93 23 5.0 13.0 0.00 0.00 0.00 31 1008.0
20210617203003 93 23 4.0 9.0 0.00 0.00 0.00 32 1008.0
20210617202503 93 23 5.0 12.0 0.00 0.00 0.00 31 1008.1
20210617202003 93 23 4.0 8.0 0.00 0.00 0.00 31 1008.2
20210617201503 92 0 4.0 8.0 0.00 0.00 0.00 31 1008.2
20210617201003 94 23 3.0 8.0 0.00 0.00 0.00 31 1008.2
20210617200503 93 338 3.0 9.0 0.00 0.00 0.00 32 1008.3
20210617200003 92 338 3.0 8.0 0.00 0.00 0.00 32 1008.4
20210617195503 91 0 5.0 10.0 0.00 0.00 0.00 33 1008.5
20210617195003 90 45 5.0 9.0 0.00 0.00 0.00 33 1008.5
20210617194503 90 23 7.0 12.0 0.00 0.00 0.00 33 1008.7
20210617194003 92 0 4.0 8.0 0.00 0.00 0.00 33 1008.8
20210617193503 91 23 4.0 10.0 0.00 0.00 0.00 34 1008.9
20210617193003 91 23 4.0 11.0 0.00 0.00 0.00 33 1008.9
20210617192503 91 23 5.0 11.0 0.00 0.00 0.00 35 1008.9
20210617192003 91 23 5.0 10.0 0.00 0.00 0.00 35 1008.9
20210617191503 91 23 5.0 10.0 0.00 0.00 0.00 36 1008.9
20210617191003 91 23 5.0 10.0 0.00 0.00 0.00 37 1008.7
20210617190503 91 23 4.0 9.0 0.00 0.00 0.00 38 1008.9
20210617190003 90 23 5.0 8.0 0.00 0.00 0.00 39 1009.0
20210617185503 89 23 5.0 11.0 0.00 0.00 0.00 40 1008.9
20210617185003 88 45 5.0 9.0 0.00 0.00 0.00 43 1009.0
20210617184503 87 45 4.0 8.0 0.00 0.00 0.00 44 1009.1
20210617184003 87 23 5.0 9.0 0.00 0.00 0.00 45 1009.2
20210617183503 87 0 3.0 6.0 0.00 0.00 0.00 46 1009.3
20210617183003 87 23 4.0 9.0 0.00 0.00 0.00 47 1009.4
20210617182505 85 45 4.0 10.0 0.00 0.00 0.00 49 1009.4
20210617182005 85 45 4.0 9.0 0.00 0.00 0.00 51 1009.4
20210617181505 85 68 3.0 7.0 0.00 0.00 0.00 52 1009.4
20210617181004 84 45 3.0 7.0 0.00 0.00 0.00 53 1009.5
20210617180505 83 68 4.0 9.0 0.00 0.00 0.00 53 1009.6
20210617180005 83 23 3.0 6.0 0.00 0.00 0.00 55 1009.7
20210617175505 82 45 3.0 8.0 0.00 0.00 0.00 56 1009.7
20210617175005 81 90 4.0 8.0 0.00 0.00 0.00 57 1009.7
20210617174504 82 45 4.0 8.0 0.00 0.00 0.00 57 1009.8
20210617174004 83 23 4.0 8.0 0.00 0.00 0.00 54 1009.8
20210617173505 84 45 3.0 6.0 0.00 0.00 0.00 50 1009.7
20210617173004 85 338 2.0 6.0 0.00 0.00 0.00 42 1009.7
20210617172505 84 293 2.0 5.0 0.00 0.00 0.00 42 1009.7
20210617172004 83 23 2.0 6.0 0.00 0.00 0.00 44 1009.7
20210617171504 83 0 3.0 7.0 0.00 0.00 0.00 46 1009.7
20210617171004 82 293 2.0 6.0 0.00 0.00 0.00 46 1009.8
20210617170505 82 0 2.0 5.0 0.00 0.00 0.00 48 1009.7
20210617170005 81 0 3.0 6.0 0.00 0.00 0.00 49 1009.8
20210617165505 80 0 2.0 6.0 0.00 0.00 0.00 52 1009.9
20210617165004 79 23 2.0 3.0 0.00 0.00 0.00 54 1009.9
20210617164505 78 45 2.0 3.0 0.00 0.00 0.00 57 1009.9
20210617164005 78 45 2.0 5.0 0.00 0.00 0.00 57 1010.0
20210617163504 77 270 1.0 3.0 0.00 0.00 0.00 59 1010.0
20210617163005 76 0 2.0 4.0 0.00 0.00 0.00 62 1010.1
20210617162504 76 23 1.0 3.0 0.00 0.00 0.00 62 1010.2
20210617162004 75 203 1.0 3.0 0.00 0.00 0.00 63 1010.2
20210617161504 74 23 2.0 5.0 0.00 0.00 0.00 65 1010.3
20210617161005 74 45 2.0 4.0 0.00 0.00 0.00 65 1010.2
20210617160505 74 45 2.0 4.0 0.00 0.00 0.00 65 1010.3
20210617160005 73 68 2.0 5.0 0.00 0.00 0.00 66 1010.3
20210617155510 73 45 1.0 3.0 0.00 0.00 0.00 66 1010.3
20210617155004 73 45 2.0 5.0 0.00 0.00 0.00 67 1010.3
20210617154504 73 45 2.0 4.0 0.00 0.00 0.00 66 1010.3
20210617154004 72 45 2.0 3.0 0.00 0.00 0.00 66 1010.3
20210617153504 72 45 1.0 3.0 0.00 0.00 0.00 67 1010.3
20210617153004 72 45 2.0 3.0 0.00 0.00 0.00 67 1010.2
20210617152504 71 68 1.0 3.0 0.00 0.00 0.00 68 1010.3
20210617152004 71 45 1.0 3.0 0.00 0.00 0.00 69 1010.2